This is the latest recevied weather packets stored in our database for station/object KK7MLS-13. If no packets are shown the sender has not sent any weather packets the latest 10 day(s).
| Time | Temp. | Humidity | Pressure | Rain* | Wind** | Luminosity | Snow |
|---|---|---|---|---|---|---|---|
| 1787956644 | 27.78° C | 37% | 1016.6 hPa | 0 mm | - | 561 W/m² | - |
| 1787956340 | 27.78° C | 39% | 1016.5 hPa | 0 mm | - | 559 W/m² | - |
| 1787956036 | 27.78° C | 39% | 1016.5 hPa | 0 mm | - | 591 W/m² | - |
| 1787955730 | 27.22° C | 43% | 1016.6 hPa | 0 mm | - | 607 W/m² | - |
| 1787955426 | 27.78° C | 42% | 1016.7 hPa | 0 mm | - | 639 W/m² | - |
| 1787955124 | 27.78° C | 40% | 1016.6 hPa | 0 mm | - | 616 W/m² | - |
| 1787954820 | 27.22° C | 42% | 1016.6 hPa | 0 mm | - | 642 W/m² | - |
| 1787954516 | 26.11° C | 44% | 1016.7 hPa | 0 mm | - | 169 W/m² | - |
| 1787954210 | 25.56° C | 46% | 1016.7 hPa | 0 mm | - | 103 W/m² | - |
| 1787953909 | 26.67° C | 44% | 1016.6 hPa | 0 mm | - | 124 W/m² | - |
| 1787953608 | 26.11° C | 45% | 1016.9 hPa | 0 mm | - | 725 W/m² | - |
| 1787953304 | 26.67° C | 46% | 1016.9 hPa | 0 mm | - | 708 W/m² | - |
| 1787953001 | 25.56° C | 45% | 1016.9 hPa | 0 mm | - | 704 W/m² | - |
| 1787952696 | 26.11° C | 43% | 1017.1 hPa | 0 mm | - | 713 W/m² | - |
| 1787952396 | 26.67° C | 43% | 1017.2 hPa | 0 mm | - | 125 W/m² | - |
| 1787952092 | 26.67° C | 41% | 1017.1 hPa | 0 mm | - | 186 W/m² | - |
| 1787951791 | 26.67° C | 43% | 1017.4 hPa | 0 mm | - | 754 W/m² | - |
| 1787951487 | 25.56° C | 45% | 1017.3 hPa | 0 mm | - | 780 W/m² | - |
| 1787951183 | 25° C | 48% | 1017.5 hPa | 0 mm | - | 765 W/m² | - |
| 1787950879 | 25° C | 45% | 1017.5 hPa | 0 mm | - | 714 W/m² | - |
| 1787950574 | 25.56° C | 46% | 1017.6 hPa | 0 mm | - | 731 W/m² | - |
| 1787950269 | 26.11° C | 45% | 1017.6 hPa | 0 mm | - | 794 W/m² | - |
| 1787949966 | 26.11° C | 45% | 1017.6 hPa | 0 mm | - | 328 W/m² | - |
| 1787949667 | 25° C | 48% | 1017.7 hPa | 0 mm | - | 768 W/m² | - |
| 1787949360 | 25° C | 47% | 1017.7 hPa | 0 mm | - | 129 W/m² | - |
* Rain latest hour (hover to see other rain measurements)
** Current wind speed in m/s (hover to see current wind gust speed)